Flag for India Weather past 2 weeks in New Okhla Industrial Development Authority, Uttar Pradesh, India

86 °F


Feels Like: 89 °F
Forecast: 78 / 96 °F
Wind: 7 mph from Northwest

Location: New Delhi Palam Airport

Current Time: Oct 7, 2015 at 10:11:10 PM

Latest Report: Oct 7, 2015 at 9:30 PM

Visibility: 2 mi

Pressure: 29.86 "Hg

Humidity: 55%

Dew point: 68 °F

Location of New Okhla Industrial Development AuthorityLocation

Historic Weather in New Okhla Industrial Development Authority — Graph


New Okhla Industrial Development Authority temperature yesterday

Maximum temperature yesterday: 95 °F (at 2:00 PM)
Minimum temperature yesterday: 73 °F (at 7:00 AM)
Average temperature yesterday: 85 °F

Past Weeks' High & Low Weather Summary

High99 °F (Oct 4, 1:30 PM)89% (Sep 23, 6:00 AM)29.98 "Hg (Sep 23, 6:00 AM)
Low70 °F (Sep 30, 5:30 AM)22% (Oct 4, 1:30 PM)29.62 "Hg (Sep 22, 8:30 PM)
Average84 °F56%29.82 "Hg
* Reported Sep 22 8:30 PM — Oct 7 8:30 PM, New Okhla Industrial Development Authority, Weather by CustomWeather, © 2015

Note: Actual official high and low records may vary slightly from our data, if they occured in-between our weather recording intervals... More about our weather records


New Okhla Industrial Development Authority weather history for previous 24 hours

Time TempWeatherWind HumidityBarometerVisibility
8:30 PM
Wed, Oct 7
88 °FHaze.5 mph55%29.86 "Hg2 mi
8:00 PM88 °FHaze.3 mph55%29.86 "Hg2 mi
7:30 PM90 °FHaze.5 mph52%29.83 "Hg2 mi
7:00 PM90 °FHaze.5 mph52%29.83 "Hg2 mi
6:30 PM90 °FHaze.6 mph49%29.83 "Hg2 mi
6:00 PM91 °FHaze.8 mph41%29.80 "Hg3 mi
5:30 PM91 °FHaze.9 mph44%29.80 "Hg3 mi
5:00 PM91 °FHaze.12 mph44%29.80 "Hg3 mi
4:30 PM93 °FHaze.14 mph39%29.80 "Hg2 mi
4:00 PM93 °FHaze.12 mph39%29.80 "Hg2 mi
3:30 PM93 °FHaze.9 mph39%29.80 "Hg2 mi
2:30 PM93 °FHaze.7 mph44%29.80 "Hg1 mi
2:00 PM93 °FHaze.12 mph41%29.80 "Hg1 mi
1:30 PM93 °FHaze.12 mph41%29.83 "Hg1 mi
1:00 PM93 °FHaze.14 mph41%29.83 "Hg1 mi
12:30 PM91 °FRain. Cloudy.12 mph46%29.86 "Hg1 mi
12:00 PM90 °FRain. Cloudy.10 mph52%29.86 "Hg1 mi
11:30 AM88 °FRain. Cloudy.8 mph55%29.86 "Hg1 mi
11:00 AM86 °FRain. Cloudy.8 mph59%29.89 "Hg1 mi
10:30 AM84 °FClear.6 mph62%29.89 "Hg1 mi
9:30 AM81 °FClear.6 mph66%29.89 "Hg1 mi
8:30 AM77 °FClear.7 mph74%29.89 "Hg1 mi
8:00 AM75 °FFog.6 mph78%29.89 "Hg1 mi
7:30 AM73 °FFog.5 mph83%29.86 "Hg1 mi
7:00 AM73 °FFog.3 mph83%29.86 "Hg1 mi
6:30 AM72 °FFog.5 mph88%29.86 "Hg1 mi
5:30 AM72 °FFog.5 mph88%29.83 "Hg1 mi
5:00 AM75 °FHaze.3 mph74%29.83 "Hg1 mi
4:30 AM77 °FHaze.3 mph74%29.83 "Hg1 mi
4:00 AM77 °FHaze.2 mph74%29.83 "Hg1 mi
3:00 AM79 °FHaze.No wind61%29.83 "Hg1 mi
2:30 AM79 °FHaze.No wind61%29.83 "Hg1 mi
2:00 AM79 °FHaze.No wind61%29.83 "Hg1 mi
1:30 AM81 °FHaze.No wind58%29.83 "Hg1 mi
1:00 AM81 °FHaze.No wind58%29.83 "Hg1 mi
12:30 AM82 °FHaze.No wind55%29.83 "Hg2 mi
12:00 AM82 °FHaze.5 mph55%29.83 "Hg2 mi
11:30 PM
Tue, Oct 6
82 °FHaze.6 mph55%29.83 "Hg2 mi
11:00 PM82 °FHaze.6 mph55%29.83 "Hg2 mi
10:00 PM84 °FHaze.6 mph51%29.83 "Hg2 mi
Weather by CustomWeather, © 2015

See weather overviewHow to use our weather pages